This demonstration page uses our WeatherBlox Daily Observations layout. Learn more.

Left ArrowRight Arrow

30.00354, -91.81873

Hourly Observations for September 25, 2022

Temp ( °F °C ) Dew Point ( °F °C ) Humidity (%) Winds ( mph kmh ) Pressure ( in mb ) Visibility ( mi km ) Precip ( " mm )
12:53 am 00:53 Clear 77 25 72 22.2 84 84 Calm 29.95 1014 10 16 0.00 0.00
1:53 am 01:53 Clear 75 23.9 71 21.7 88 88 ESE 3 6 29.95 1014 9 14 0.00 0.00
2:53 am 02:53 Clear 75 23.9 72 22.2 90 90 undefined N/A 29.94 1014 7 11 0.00 0.00
3:53 am 03:53 Clear 75 23.9 72 22.2 90 90 Calm 29.94 1014 7 11 0.00 0.00
4:53 am 04:53 Clear 74 23.3 71 21.7 91 91 NNE 3 6 29.94 1014 7 11 0.00 0.00
5:53 am 05:53 Clear 75 23.9 72 22.2 90 90 N 3 6 29.95 1014 7 11 0.00 0.00
6:53 am 06:53 Clear 74 23.3 71 21.7 91 91 Calm 29.95 1014 8 13 0.00 0.00
7:53 am 07:53 Sunny 77 25 72 22.2 84 84 N 3 6 29.97 1015 7 11 0.00 0.00
8:53 am 08:53 Sunny 80 26.7 73 22.8 79 79 N 6 9 29.97 1015 8 13 0.00 0.00
9:53 am 09:53 Sunny 84 28.9 72 22.2 67 67 N 5 7 29.99 1016 10 16 0.00 0.00
10:53 am 10:53 Sunny 89 31.7 69 20.6 52 52 N 6 9 29.98 1015 10 16 0.00 0.00
11:53 am 11:53 Sunny 91 32.8 68 20 47 47 NNE 5 7 29.97 1015 10 16 0.00 0.00
12:53 pm 12:53 Sunny 92 33.3 67 19.4 44 44 NNE 7 11 29.95 1014 10 16 0.00 0.00
1:53 pm 13:53 Sunny 92 33.3 66 18.9 43 43 N 9 15 29.92 1013 10 16 0.00 0.00
2:53 pm 14:53 Sunny 93 33.9 67 19.4 43 43 NNW 10 17 29.90 1013 10 16 0.00 0.00
3:53 pm 15:53 Sunny 93 33.9 66 18.9 41 41 N 7 11 29.89 1012 10 16 0.00 0.00
4:53 pm 16:53 Sunny 92 33.3 67 19.4 44 44 N 5 7 29.88 1012 10 16 0.00 0.00
5:53 pm 17:53 Sunny 90 32.2 71 21.7 54 54 Calm 29.88 1012 10 16 0.00 0.00
6:53 pm 18:53 Sunny 87 30.6 71 21.7 59 59 Calm 29.88 1012 10 16 0.00 0.00
7:53 pm 19:53 Clear 80 26.7 70 21.1 71 71 Calm 29.90 1012 10 16 0.00 0.00
8:53 pm 20:53 Clear 79 26.1 72 22.2 79 79 Calm 29.91 1013 10 16 0.00 0.00
9:53 pm 21:53 Clear 78 25.6 71 21.7 79 79 SSW 3 6 29.92 1013 10 16 0.00 0.00
10:53 pm 22:53 Clear 77 25 72 22.2 84 84 Calm 29.92 1013 9 14 0.00 0.00
11:53 pm 23:53 Clear 75 23.9 71 21.7 88 88 Calm 29.93 1013 10 16 0.00 0.00

Powered by AerisWeather